Tracking 29892 objects as of 21-Nov-2024
HD Live streaming from Space Station
objects crossing your sky now

TITAN 3C TRANSTAGE DEB

Track TITAN 3C TRANSTAGE DEB now!


NORAD ID: 43284
Int'l Code: 1969-013E
Perigee: 36,045.8 km
Apogee: 37,290.7 km
Inclination: 0.3 °
Period: 1,481.0 minutes
Semi major axis: 43039 km
RCS: Unknown
Launch date: February 9, 1969
Source: United States (US)
Launch site: AIR FORCE EASTERN TEST RANGE (AFETR)

Note: This is SATELLITE DEBRIS
Your satellite tracking list
Your tracking list is empty




NASA's NSSDC Master Catalog

Two Line Element Set (TLE):
1 43284U 69013E   24326.19334549 -.00000075  00000-0  00000+0 0  9997
2 43284   0.2672 311.9771 0144633 161.6009 247.9652  0.97231229 23727
Source of the keplerian elements: AFSPC